Wind_Speed
43 42 35 37 39 35 33 40 42 42 42 36 22 6 24 21 20 18 23 26 19 16 26 33 44 53 62 59 59 63 59 62 58 58 57 61 62 66 62 64 60 64 67 59
42 50 43 37 38 34 32 41 40 41 40 40 22 19 7 9 28 32 24 14 9 11 19 27 36 45 49 54 53 53 57 55 52 56 56 59 64 62 61 60 61 58 61 65
49 47 45 36 37 35 30 41 37 39 36 34 30 16 14 9 12 15 18 17 11 5 16 21 30 37 41 43 49 52 55 53 57 58 58 57 58 65 60 54 60 60 60 59
48 49 45 37 36 34 31 38 31 37 34 31 29 16 11 11 10 10 16 18 20 15 14 17 20 30 35 36 40 49 49 48 49 46 56 56 62 60 60 60 58 59 58 52
46 52 45 40 40 34 31 34 34 34 32 28 26 21 14 8 8 13 17 23 21 22 21 19 20 20 23 27 36 43 39 37 44 52 55 57 58 61 60 58 51 56 56 55
51 51 45 46 40 34 31 34 36 34 33 27 24 20 19 10 6 9 16 25 25 18 18 26 27 22 25 30 28 29 37 39 39 44 48 48 46 46 51 56 59 57 57 59
60 58 57 50 43 38 30 33 37 35 33 26 16 15 16 15 3 9 11 22 32 30 26 27 32 30 32 36 33 35 37 38 38 41 45 46 48 52 51 52 56 59 60 63
65 61 59 55 44 41 30 33 35 34 31 27 20 14 19 21 20 8 9 16 21 27 39 36 38 37 36 40 39 39 41 45 47 50 50 51 55 56 54 57 60 62 65 68
71 62 64 56 47 42 33 36 31 37 30 28 21 14 15 16 18 19 16 9 8 20 24 29 48 45 45 46 41 40 44 46 49 53 55 54 54 59 59 63 66 66 67 66
77 71 69 51 48 45 35 36 32 36 33 28 25 18 15 15 20 20 21 16 12 15 19 24 29 33 46 50 52 53 51 54 55 53 54 57 57 54 54 52 53 54 55 56
79 70 61 63 45 49 43 36 35 35 35 32 24 22 19 16 16 21 19 21 23 24 23 22 18 29 32 33 40 45 42 39 40 43 39 42 39 38 41 43 46 51 48 56
81 71 68 53 50 52 47 38 35 32 34 33 25 24 23 21 20 20 20 18 22 22 23 25 19 16 28 30 35 36 37 31 37 36 37 45 43 38 18 40 41 49 52 55
76 69 58 52 53 52 48 42 38 36 35 33 32 29 27 25 23 23 25 24 23 24 24 26 24 21 13 21 35 38 39 41 42 43 42 49 37 40 33 39 44 57 58 67
70 59 56 46 52 54 50 48 42 43 34 35 34 33 32 29 26 26 27 30 28 25 27 25 25 23 17 16 18 26 35 41 46 49 49 50 44 48 48 55 60 67 70 74
61 58 56 53 55 56 53 52 47 40 40 32 37 36 35 34 30 27 28 30 31 32 31 28 26 28 29 23 20 20 19 22 33 39 42 43 45 54 56 60 65 67 64 67
63 65 63 61 58 55 55 50 47 42 42 39 37 38 41 39 33 31 32 31 31 33 36 34 32 26 32 37 34 29 30 30 29 29 30 39 46 45 54 59 64 65 66 66
67 74 66 59 62 59 54 47 43 45 45 44 37 38 42 40 38 36 36 38 36 37 38 36 36 35 34 36 37 37 35 33 35 37 37 38 39 39 43 51 56 61 64 66
71 79 70 64 65 64 51 50 47 46 45 45 45 39 40 42 41 40 41 42 39 44 43 39 40 40 39 38 39 39 41 41 40 40 40 41 43 47 49 50 50 54 59 64
77 83 75 67 68 56 55 54 56 53 49 49 50 46 43 42 43 43 45 47 45 43 41 42 43 46 44 44 42 44 48 51 51 50 49 49 49 50 52 51 47 50 57 63
84 84 80 71 68 55 51 58 51 57 51 49 50 49 46 44 42 44 47 51 49 44 44 44 46 50 48 47 47 50 52 55 54 54 53 54 52 54 57 56 51 59 65 69
86 87 82 75 69 70 65 60 57 51 52 55 57 53 49 49 47 47 49 51 50 47 50 50 49 52 53 49 50 52 57 58 58 59 59 59 59 62 63 59 60 69 71 73
86 90 82 78 70 67 70 69 68 54 51 56 56 54 55 55 54 52 51 53 50 50 53 53 54 56 55 56 54 58 60 63 65 64 65 66 65 66 68 68 70 74 72 73
84 86 83 79 69 70 71 73 68 63 62 60 54 56 60 60 57 57 56 55 56 56 57 58 59 60 62 60 57 60 64 66 69 68 69 71 71 73 72 75 76 76 74 70
81 83 85 83 79 76 73 72 68 65 69 68 65 61 60 62 61 61 61 61 58 59 60 62 65 62 65 64 62 64 66 70 74 76 74 76 77 77 79 81 83 78 75 72
82 81 82 82 81 82 76 73 73 72 72 68 68 68 65 65 65 65 66 65 61 62 63 64 67 68 70 67 67 70 71 75 79 81 81 82 83 84 87 89 88 82 80 79
79 75 75 77 81 81 80 77 72 69 67 67 69 69 71 71 71 71 68 68 66 65 68 69 70 71 72 72 73 74 77 79 83 83 86 86 87 91 93 94 87 83 84 84
Wind_Direction
303 308 298 303 308 306 311 317 323 334 345 350 352 353 207 214 228 249 259 249 265 233 212 211 220 223 218 221 222 222 224 229 233 233 233 237 241 246 253 251 258 261 266 268
297 299 305 296 305 303 306 311 315 327 345 351 347 353 306 223 234 250 249 245 271 227 202 207 213 218 221 222 221 229 231 234 235 238 235 242 243 248 254 260 264 269 272 273
291 294 305 294 296 301 299 309 312 324 341 349 343 342 336 289 253 239 212 208 198 197 209 200 207 214 219 223 225 231 234 234 236 239 242 246 248 248 256 260 261 267 271 273
288 290 304 286 284 293 292 303 309 323 335 344 348 332 335 319 286 246 214 210 205 187 195 202 214 215 219 223 228 233 238 242 241 246 247 249 253 257 258 262 264 268 271 271
283 289 293 288 276 286 288 297 298 315 325 336 347 341 307 308 319 276 225 214 213 205 200 216 202 222 225 225 230 235 238 240 244 243 252 255 258 259 263 266 268 269 270 272
278 281 287 291 277 278 283 290 291 304 315 330 336 345 346 321 243 242 236 208 224 209 223 217 220 216 232 248 250 244 234 233 241 247 251 255 257 261 265 265 264 269 271 270
273 278 283 287 274 267 273 278 289 297 307 319 344 354 350 353 346 254 238 235 218 219 228 220 223 233 234 235 237 241 245 255 260 261 263 259 263 265 263 266 267 268 272 281
270 273 276 277 264 259 265 266 278 292 298 313 327 336 14 17 5 359 235 229 252 240 229 239 232 232 235 240 244 243 242 247 253 257 257 261 265 264 271 275 276 276 278 279
266 270 271 275 257 251 255 262 268 283 290 302 316 337 355 7 23 18 9 356 266 256 264 248 243 244 242 249 248 250 251 254 263 269 269 269 271 274 273 276 277 280 282 279
266 265 272 265 246 246 249 255 261 276 283 291 305 309 323 346 357 10 15 359 345 333 305 268 256 254 253 256 255 256 257 259 265 269 271 271 271 273 279 283 283 284 284 282
261 264 267 264 238 243 241 246 253 262 276 282 285 303 301 312 336 347 6 4 358 349 343 322 272 244 252 258 263 263 263 268 271 270 280 276 277 290 295 301 295 288 276 273
260 262 259 245 230 240 239 240 249 256 268 278 276 291 296 303 320 335 337 357 5 3 344 352 343 279 254 248 261 272 273 265 269 275 278 280 287 293 289 293 298 280 271 268
257 255 237 225 228 235 237 238 238 246 254 275 274 281 292 297 304 315 327 332 350 351 7 339 343 336 310 268 259 259 266 269 265 264 271 273 274 270 250 247 249 263 264 266
246 242 222 226 226 234 238 237 236 243 255 262 272 277 285 289 305 302 318 324 334 345 348 357 342 332 333 316 292 270 260 264 267 267 266 269 269 258 257 256 257 262 266 271
241 223 215 223 227 229 236 236 237 242 247 255 269 274 281 288 296 302 309 318 324 326 337 348 353 332 327 320 323 319 304 285 270 263 261 262 263 261 256 256 259 263 271 277
213 209 213 219 222 228 233 238 241 242 246 246 265 275 278 286 291 293 303 302 310 314 327 335 345 334 321 324 330 331 323 310 298 293 281 269 265 268 265 267 268 270 277 279
205 204 211 214 220 224 225 235 242 247 250 249 252 269 277 280 288 290 300 294 307 307 316 325 335 333 322 320 325 326 324 321 310 307 301 296 291 290 291 285 280 281 282 283
205 204 211 209 218 223 222 230 235 243 247 252 253 255 268 273 283 291 291 292 300 303 308 318 325 326 324 318 317 318 319 317 314 308 305 304 304 304 304 305 295 291 290 289
206 205 210 211 218 216 220 225 236 241 245 251 253 253 262 272 282 285 286 286 298 299 302 313 319 322 321 319 318 316 315 316 316 316 314 312 306 312 310 308 306 306 304 302
204 205 209 211 216 213 216 223 231 238 239 248 256 254 260 268 276 280 283 287 294 293 299 307 313 316 317 316 314 314 314 313 314 315 314 312 310 310 311 303 305 305 303 302
203 206 208 213 216 220 221 227 226 228 237 249 251 254 258 265 270 277 282 287 286 289 299 301 307 310 313 314 312 311 310 311 313 312 312 311 311 311 310 310 306 307 304 304
205 208 209 213 216 221 226 230 233 233 237 246 253 257 258 262 266 272 277 281 282 292 296 296 303 307 310 312 309 308 307 308 312 310 310 310 312 311 312 311 307 304 302 303
207 210 210 212 216 220 225 228 233 235 234 242 251 255 257 261 266 270 275 279 282 288 289 295 300 303 306 308 304 302 304 305 307 307 306 309 311 312 313 310 307 305 304 302
208 213 214 213 217 222 222 226 226 235 241 246 254 255 257 262 268 274 276 278 282 286 289 294 299 301 303 304 303 302 302 304 306 307 307 308 310 312 311 310 308 306 304 301
209 213 217 217 221 223 226 233 238 240 244 248 251 253 258 265 271 275 277 279 282 284 288 293 297 300 303 302 301 301 304 306 308 307 307 308 310 311 311 309 308 307 304 304
211 214 219 221 222 224 227 231 236 239 243 248 251 254 259 264 269 272 275 277 281 284 289 293 297 299 300 300 299 301 303 306 307 306 307 308 309 309 310 309 307 304 303 304
Height
10664 10661 10660 10659 10656 10654 10653 10650 10647 10640 10633 10626 10621 10621 10620 10615 10614 10610 10609 10605 10601 10602 10604 10610 10615 10623 10632 10639 10642 10646 10650 10654 10659 10664 10667 10669 10670 10670 10672 10672 10670 10668 10667 10665
10657 10653 10654 10653 10651 10649 10648 10647 10644 10640 10631 10622 10617 10616 10615 10614 10613 10611 10607 10607 10604 10603 10605 10608 10614 10619 10627 10633 10637 10641 10644 10652 10656 10659 10662 10663 10663 10664 10665 10663 10662 10661 10659 10656
10648 10646 10648 10647 10646 10645 10643 10641 10639 10635 10631 10626 10617 10612 10609 10609 10608 10611 10611 10610 10608 10606 10606 10610 10612 10617 10622 10628 10632 10636 10641 10645 10648 10651 10653 10654 10655 10656 10655 10655 10656 10653 10648 10646
10640 10639 10641 10640 10639 10640 10638 10637 10634 10630 10628 10623 10619 10612 10607 10606 10605 10605 10609 10610 10611 10610 10608 10610 10614 10617 10621 10625 10628 10631 10635 10638 10642 10642 10641 10645 10645 10645 10645 10646 10645 10641 10638 10636
10628 10630 10634 10634 10633 10634 10633 10633 10631 10629 10627 10623 10617 10613 10607 10604 10605 10603 10603 10606 10608 10611 10613 10612 10613 10616 10616 10618 10622 10625 10629 10633 10633 10634 10636 10635 10635 10635 10633 10634 10633 10627 10628 10626
10616 10618 10626 10626 10627 10628 10628 10628 10627 10625 10624 10621 10616 10611 10607 10604 10603 10600 10600 10603 10605 10607 10609 10611 10613 10611 10616 10618 10619 10621 10624 10626 10628 10627 10628 10628 10628 10625 10624 10621 10622 10620 10617 10614
10601 10612 10615 10618 10619 10620 10621 10622 10622 10621 10621 10617 10616 10612 10606 10601 10600 10601 10602 10598 10600 10603 10603 10607 10609 10610 10610 10612 10613 10617 10621 10621 10621 10623 10622 10621 10621 10620 10617 10613 10611 10610 10607 10601
10593 10600 10602 10605 10610 10611 10613 10615 10615 10615 10615 10613 10611 10609 10603 10598 10596 10597 10598 10599 10597 10597 10600 10598 10600 10601 10603 10605 10608 10613 10612 10611 10609 10610 10610 10607 10607 10611 10610 10608 10603 10600 10596 10591
10578 10589 10584 10596 10599 10604 10604 10606 10609 10608 10609 10608 10607 10605 10602 10601 10598 10595 10592 10592 10595 10593 10592 10595 10593 10591 10595 10597 10601 10600 10600 10602 10601 10599 10597 10600 10598 10596 10599 10600 10598 10593 10583 10573
10563 10570 10575 10582 10588 10596 10597 10596 10602 10602 10602 10603 10602 10601 10599 10596 10595 10593 10589 10589 10587 10585 10586 10587 10586 10585 10586 10588 10588 10590 10591 10594 10595 10591 10588 10588 10590 10589 10584 10582 10583 10581 10571 10563
10544 10559 10568 10568 10581 10583 10587 10589 10593 10594 10595 10596 10597 10596 10595 10595 10594 10590 10589 10587 10581 10577 10577 10575 10577 10581 10579 10580 10575 10577 10581 10584 10581 10582 10580 10579 10581 10578 10576 10571 10570 10567 10560 10552
10533 10538 10544 10556 10566 10570 10576 10579 10584 10587 10587 10589 10590 10590 10590 10589 10588 10587 10587 10586 10582 10579 10573 10570 10567 10568 10571 10572 10569 10570 10572 10570 10569 10572 10569 10566 10573 10573 10568 10569 10562 10555 10544 10539
10512 10518 10528 10540 10555 10560 10568 10570 10574 10577 10580 10582 10582 10582 10584 10583 10583 10582 10580 10578 10578 10575 10572 10565 10564 10563 10562 10563 10560 10562 10563 10563 10564 10560 10561 10556 10561 10559 10560 10558 10544 10540 10532 10524
10483 10504 10518 10532 10544 10549 10556 10559 10563 10567 10573 10572 10574 10572 10576 10576 10577 10575 10573 10569 10569 10570 10568 10567 10560 10559 10556 10556 10554 10553 10555 10557 10556 10553 10550 10545 10547 10544 10544 10538 10533 10522 10517 10513
10478 10494 10505 10518 10528 10537 10542 10549 10553 10560 10562 10566 10563 10567 10565 10567 10568 10568 10567 10564 10560 10561 10564 10563 10559 10548 10546 10548 10548 10546 10545 10545 10543 10539 10537 10534 10531 10528 10525 10521 10515 10511 10508 10500
10462 10479 10488 10501 10513 10523 10531 10538 10545 10550 10552 10555 10556 10559 10556 10557 10558 10560 10560 10561 10560 10556 10554 10555 10553 10550 10539 10533 10533 10533 10531 10529 10528 10525 10522 10521 10518 10513 10509 10505 10500 10496 10488 10481
10446 10462 10471 10489 10498 10505 10520 10531 10535 10540 10543 10546 10548 10549 10549 10549 10549 10550 10552 10548 10550 10547 10548 10548 10545 10541 10537 10531 10526 10523 10522 10520 10516 10513 10509 10504 10499 10495 10489 10484 10478 10473 10468 10461
10434 10449 10460 10476 10480 10493 10515 10516 10523 10529 10534 10536 10539 10539 10539 10541 10541 10542 10540 10538 10541 10536 10535 10538 10533 10531 10528 10524 10521 10518 10513 10511 10508 10502 10497 10491 10485 10479 10473 10467 10460 10455 10449 10443
10416 10434 10446 10459 10472 10488 10501 10505 10511 10518 10523 10524 10526 10529 10529 10531 10533 10533 10531 10528 10530 10528 10524 10526 10523 10519 10516 10514 10511 10506 10501 10496 10492 10487 10482 10476 10470 10465 10458 10451 10445 10439 10434 10426
10400 10416 10431 10448 10464 10482 10487 10491 10494 10504 10513 10513 10516 10518 10520 10522 10525 10524 10521 10517 10518 10517 10515 10516 10514 10509 10505 10502 10498 10493 10488 10482 10477 10472 10467 10461 10455 10450 10444 10437 10430 10424 10416 10407
10391 10406 10423 10438 10455 10468 10474 10476 10478 10490 10502 10498 10500 10507 10511 10513 10514 10513 10511 10509 10508 10506 10503 10501 10503 10499 10495 10491 10486 10480 10474 10469 10464 10459 10453 10446 10441 10434 10427 10419 10412 10406 10395 10386
10385 10395 10413 10427 10444 10458 10463 10463 10469 10482 10485 10484 10490 10496 10499 10500 10500 10500 10500 10499 10497 10496 10493 10489 10486 10485 10485 10480 10472 10466 10460 10455 10450 10444 10437 10431 10425 10417 10410 10401 10394 10385 10375 10367
10379 10392 10405 10417 10437 10443 10445 10447 10458 10467 10469 10469 10474 10480 10484 10486 10488 10487 10488 10487 10487 10484 10482 10479 10475 10471 10470 10468 10463 10456 10448 10443 10435 10429 10421 10415 10408 10400 10391 10382 10374 10364 10355 10346
10371 10382 10394 10409 10420 10428 10432 10438 10447 10451 10454 10457 10463 10466 10471 10474 10476 10475 10475 10474 10473 10470 10470 10467 10462 10459 10455 10451 10446 10440 10434 10428 10420 10411 10403 10396 10389 10381 10373 10362 10353 10345 10336 10327
10357 10367 10382 10397 10405 10411 10423 10429 10435 10442 10442 10444 10450 10453 10458 10462 10462 10463 10461 10459 10458 10456 10456 10452 10448 10443 10438 10434 10429 10421 10415 10409 10402 10392 10384 10376 10368 10360 10351 10340 10330 10321 10312 10304
10349 10364 10373 10382 10390 10404 10412 10416 10423 10427 10429 10435 10438 10442 10444 10450 10450 10447 10446 10445 10444 10443 10440 10436 10432 10427 10421 10415 10409 10405 10399 10393 10384 10374 10364 10357 10348 10339 10329 10318 10306 10298 10290 10280